UAL441 KORD-KCMH

Flight info

Callsign UAL441
Flight time 0h 47m
Altitude 33000
Route MOBLE ADIME SEWTO FWA BRYEN DUBLN1
Aircraft CRJ7/M-SDFGIRWY/S

Departure

Time 2026-05-09 00:46
Airport Chicago O'Hare International Airport (KORD)

Arrival

Time 2026-05-09 01:34
Airport John Glenn Columbus International Airport (KCMH)
Time Latitude Longitude Altitude Speed Heading
2026-05-08 23:46 41.97837 -87.90766 669 ft 0 kts 101°
2026-05-09 00:10 41.97838 -87.90767 669 ft 2 kts 101°
2026-05-09 00:10 41.97840 -87.90789 669 ft 4 kts 92°
2026-05-09 00:11 41.97834 -87.90821 669 ft 4 kts 52°
2026-05-09 00:11 41.97815 -87.90835 669 ft 1 kts
2026-05-09 00:11 41.97814 -87.90836 669 ft 0 kts
2026-05-09 00:14 41.97817 -87.90835 669 ft 1 kts
2026-05-09 00:14 41.97831 -87.90833 669 ft 3 kts 358°
2026-05-09 00:14 41.97856 -87.90843 669 ft 5 kts 340°
2026-05-09 00:14 41.97892 -87.90861 669 ft 7 kts 340°
2026-05-09 00:15 41.97943 -87.90876 669 ft 8 kts
2026-05-09 00:15 41.98008 -87.90866 669 ft 10 kts
2026-05-09 00:15 41.98069 -87.90854 668 ft 7 kts
2026-05-09 00:15 41.98121 -87.90854 668 ft 8 kts 358°
2026-05-09 00:16 41.98125 -87.90854 668 ft 0 kts 358°
2026-05-09 00:17 41.98130 -87.90855 668 ft 3 kts 358°
2026-05-09 00:17 41.98163 -87.90857 668 ft 6 kts 357°
2026-05-09 00:17 41.98215 -87.90860 668 ft 9 kts 357°
2026-05-09 00:17 41.98280 -87.90883 667 ft 11 kts 311°
2026-05-09 00:18 41.98290 -87.90986 667 ft 12 kts 270°
2026-05-09 00:18 41.98290 -87.91111 667 ft 14 kts 269°
2026-05-09 00:18 41.98290 -87.91248 668 ft 15 kts 270°
2026-05-09 00:18 41.98290 -87.91391 669 ft 16 kts 270°
2026-05-09 00:19 41.98289 -87.91461 669 ft 0 kts 270°
2026-05-09 00:19 41.98290 -87.91468 669 ft 2 kts 277°
2026-05-09 00:20 41.98294 -87.91488 668 ft 2 kts 276°
2026-05-09 00:20 41.98294 -87.91495 668 ft 3 kts 264°
2026-05-09 00:20 41.98292 -87.91529 668 ft 7 kts 270°
2026-05-09 00:20 41.98287 -87.91573 668 ft 2 kts 206°
2026-05-09 00:21 41.98283 -87.91569 668 ft 1 kts 92°
2026-05-09 00:21 41.98288 -87.91478 669 ft 10 kts 89°
2026-05-09 00:21 41.98289 -87.91438 669 ft 0 kts 89°
2026-05-09 00:22 41.98289 -87.91429 669 ft 3 kts 89°
2026-05-09 00:22 41.98290 -87.91372 669 ft 9 kts 89°
2026-05-09 00:22 41.98290 -87.91263 668 ft 15 kts 90°
2026-05-09 00:22 41.98290 -87.91101 667 ft 18 kts 90°
2026-05-09 00:23 41.98290 -87.90926 667 ft 19 kts 90°
2026-05-09 00:23 41.98290 -87.90747 666 ft 20 kts 89°
2026-05-09 00:23 41.98290 -87.90557 666 ft 21 kts 90°
2026-05-09 00:23 41.98290 -87.90365 667 ft 21 kts 90°
2026-05-09 00:24 41.98289 -87.90170 667 ft 21 kts 90°
2026-05-09 00:24 41.98290 -87.90040 667 ft 21 kts 90°
2026-05-09 00:24 41.98290 -87.89831 668 ft 14 kts 90°
2026-05-09 00:24 41.98290 -87.89719 668 ft 15 kts 90°
2026-05-09 00:25 41.98286 -87.89596 668 ft 8 kts 112°
2026-05-09 00:25 41.98255 -87.89550 668 ft 7 kts 136°
2026-05-09 00:25 41.98223 -87.89499 668 ft 8 kts 126°
2026-05-09 00:25 41.98202 -87.89461 668 ft 9 kts 126°
2026-05-09 00:26 41.98157 -87.89400 668 ft 10 kts 134°
2026-05-09 00:26 41.98102 -87.89336 668 ft 11 kts 162°
2026-05-09 00:26 41.98036 -87.89376 669 ft 12 kts 222°
2026-05-09 00:26 41.97979 -87.89462 669 ft 13 kts 228°
2026-05-09 00:27 41.97887 -87.89524 669 ft 12 kts 179°
2026-05-09 00:27 41.97801 -87.89521 669 ft 13 kts 179°
2026-05-09 00:27 41.97740 -87.89520 669 ft 14 kts 179°
2026-05-09 00:27 41.97638 -87.89520 669 ft 15 kts 181°
2026-05-09 00:28 41.97532 -87.89525 669 ft 16 kts 182°
2026-05-09 00:28 41.97449 -87.89534 669 ft 11 kts 186°
2026-05-09 00:28 41.97375 -87.89561 669 ft 12 kts 210°
2026-05-09 00:28 41.97317 -87.89640 669 ft 13 kts 237°
2026-05-09 00:29 41.97265 -87.89742 669 ft 13 kts 238°
2026-05-09 00:29 41.97235 -87.89817 669 ft 10 kts 246°
2026-05-09 00:29 41.97210 -87.89910 669 ft 11 kts 252°
2026-05-09 00:29 41.97203 -87.90021 669 ft 13 kts 271°
2026-05-09 00:30 41.97200 -87.90095 669 ft 8 kts 247°
2026-05-09 00:30 41.97155 -87.90133 668 ft 8 kts 222°
2026-05-09 00:30 41.97137 -87.90222 668 ft 12 kts 265°
2026-05-09 00:30 41.97137 -87.90331 668 ft 13 kts 272°
2026-05-09 00:31 41.97139 -87.90449 668 ft 12 kts 269°
2026-05-09 00:31 41.97142 -87.90565 668 ft 13 kts 277°
2026-05-09 00:31 41.97143 -87.90689 668 ft 14 kts 269°
2026-05-09 00:31 41.97146 -87.90805 669 ft 9 kts 272°
2026-05-09 00:32 41.97147 -87.90869 669 ft 8 kts 271°
2026-05-09 00:32 41.97148 -87.90971 669 ft 14 kts 270°
2026-05-09 00:32 41.97122 -87.91095 669 ft 9 kts 243°
2026-05-09 00:32 41.97073 -87.91168 669 ft 15 kts 233°
2026-05-09 00:33 41.97040 -87.91324 670 ft 18 kts 271°
2026-05-09 00:33 41.97040 -87.91489 670 ft 19 kts 269°
2026-05-09 00:33 41.97039 -87.91671 670 ft 21 kts 270°
2026-05-09 00:33 41.97039 -87.91794 670 ft 9 kts 269°
2026-05-09 00:34 41.97038 -87.91883 670 ft 11 kts 270°
2026-05-09 00:34 41.97039 -87.91985 669 ft 12 kts 270°
2026-05-09 00:34 41.97040 -87.92108 669 ft 14 kts 270°
2026-05-09 00:34 41.97040 -87.92241 669 ft 16 kts 270°
2026-05-09 00:35 41.97039 -87.92389 669 ft 12 kts 269°
2026-05-09 00:35 41.97038 -87.92462 669 ft 0 kts 269°
2026-05-09 00:38 41.97038 -87.92483 669 ft 5 kts 269°
2026-05-09 00:38 41.97027 -87.92535 669 ft 6 kts 215°
2026-05-09 00:38 41.97004 -87.92538 670 ft 0 kts 179°
2026-05-09 00:45 41.96994 -87.92538 670 ft 5 kts 179°
2026-05-09 00:45 41.96929 -87.92529 671 ft 13 kts 149°
2026-05-09 00:46 41.96902 -87.92403 670 ft 27 kts 91°
2026-05-09 00:46 41.96902 -87.91831 672 ft 94 kts 90°
2026-05-09 00:46 41.96902 -87.90694 699 ft 142 kts 91°
2026-05-09 00:46 41.96880 -87.89374 1289 ft 142 kts 96°
2026-05-09 00:47 41.96708 -87.88009 1751 ft 157 kts 104°
2026-05-09 00:47 41.96404 -87.86560 2321 ft 159 kts 107°
2026-05-09 00:47 41.96112 -87.85104 2893 ft 167 kts 106°
2026-05-09 00:47 41.95794 -87.83495 3252 ft 190 kts 106°
2026-05-09 00:48 41.95422 -87.81681 3605 ft 212 kts 107°
2026-05-09 00:48 41.95122 -87.79863 3996 ft 227 kts 95°
2026-05-09 00:48 41.95058 -87.77681 4631 ft 237 kts 91°
2026-05-09 00:48 41.95008 -87.75407 5305 ft 254 kts 91°
2026-05-09 00:49 41.94970 -87.72981 5855 ft 273 kts 90°
2026-05-09 00:49 41.94943 -87.70359 6483 ft 287 kts 90°
2026-05-09 00:49 41.94926 -87.67664 7330 ft 291 kts 90°
2026-05-09 00:49 41.94918 -87.64917 8159 ft 297 kts 89°
2026-05-09 00:50 41.94926 -87.62329 8916 ft 302 kts 88°
2026-05-09 00:50 41.94941 -87.59519 9728 ft 307 kts 88°
2026-05-09 00:50 41.94931 -87.56628 10469 ft 312 kts 89°
2026-05-09 00:50 41.94916 -87.53689 11220 ft 316 kts 89°
2026-05-09 00:51 41.94900 -87.50701 11792 ft 328 kts 89°
2026-05-09 00:51 41.94880 -87.47554 12209 ft 344 kts 89°
2026-05-09 00:51 41.94859 -87.44581 12847 ft 349 kts 89°
2026-05-09 00:51 41.94834 -87.41296 13578 ft 354 kts 89°
2026-05-09 00:52 41.94809 -87.38017 14213 ft 359 kts 89°
2026-05-09 00:52 41.94782 -87.34642 14838 ft 364 kts 89°
2026-05-09 00:52 41.94755 -87.31227 15451 ft 369 kts 90°
2026-05-09 00:52 41.94723 -87.27762 16055 ft 373 kts 90°
2026-05-09 00:53 41.94697 -87.24559 16602 ft 378 kts 90°
2026-05-09 00:53 41.94665 -87.21008 17193 ft 382 kts 90°
2026-05-09 00:53 41.94631 -87.17418 17778 ft 387 kts 90°
2026-05-09 00:53 41.94596 -87.13781 18317 ft 391 kts 89°
2026-05-09 00:54 41.94559 -87.10136 18808 ft 396 kts 90°
2026-05-09 00:54 41.94527 -87.06706 19247 ft 400 kts 89°
2026-05-09 00:54 41.94554 -87.02958 19721 ft 404 kts 88°
2026-05-09 00:54 41.94632 -86.99162 20183 ft 408 kts 88°
2026-05-09 00:55 41.94699 -86.95341 20647 ft 412 kts 88°
2026-05-09 00:55 41.94751 -86.91790 21064 ft 416 kts 88°
2026-05-09 00:55 41.94810 -86.87885 21497 ft 420 kts 88°
2026-05-09 00:55 41.94869 -86.83942 21922 ft 424 kts 88°
2026-05-09 00:56 41.94925 -86.79955 22336 ft 428 kts 88°
2026-05-09 00:56 41.94981 -86.75997 22743 ft 432 kts 88°
2026-05-09 00:56 41.95031 -86.72262 23112 ft 436 kts 88°
2026-05-09 00:56 41.95085 -86.68177 23482 ft 439 kts 88°
2026-05-09 00:57 41.95139 -86.64057 23797 ft 443 kts 89°
2026-05-09 00:57 41.94858 -86.59933 24083 ft 446 kts 103°
2026-05-09 00:57 41.94170 -86.56214 24351 ft 447 kts 112°
2026-05-09 00:57 41.92680 -86.52615 24605 ft 438 kts 136°
2026-05-09 00:58 41.90489 -86.49878 24959 ft 427 kts 149°
2026-05-09 00:58 41.88301 -86.47429 25285 ft 433 kts 145°
2026-05-09 00:58 41.86326 -86.44292 25594 ft 447 kts 131°
2026-05-09 00:58 41.84575 -86.40824 25902 ft 451 kts 129°
2026-05-09 00:59 41.83002 -86.37563 26184 ft 454 kts 129°
2026-05-09 00:59 41.81311 -86.33982 26478 ft 456 kts 128°
2026-05-09 00:59 41.79650 -86.30410 26765 ft 459 kts 128°
2026-05-09 00:59 41.77934 -86.26685 27051 ft 461 kts 128°
2026-05-09 01:00 41.76279 -86.23099 27323 ft 462 kts 130°
2026-05-09 01:00 41.74496 -86.19932 27565 ft 457 kts 137°
2026-05-09 01:00 41.72436 -86.16691 27812 ft 457 kts 140°
2026-05-09 01:00 41.70324 -86.13500 28060 ft 458 kts 140°
2026-05-09 01:01 41.68205 -86.10316 28371 ft 459 kts 140°
2026-05-09 01:01 41.66076 -86.07134 28627 ft 461 kts 140°
2026-05-09 01:01 41.64097 -86.04081 28920 ft 463 kts 139°
2026-05-09 01:01 41.62089 -86.00818 29270 ft 463 kts 137°
2026-05-09 01:02 41.60057 -85.97481 29602 ft 462 kts 138°
2026-05-09 01:02 41.58023 -85.94167 29931 ft 461 kts 138°
2026-05-09 01:02 41.55981 -85.90858 30187 ft 461 kts 138°
2026-05-09 01:02 41.53943 -85.87550 30381 ft 463 kts 139°
2026-05-09 01:03 41.49974 -85.81105 30347 ft 459 kts 139°
2026-05-09 01:03 41.45988 -85.74664 30027 ft 462 kts 138°
2026-05-09 01:04 41.43936 -85.71342 29766 ft 466 kts 138°
2026-05-09 01:04 41.41943 -85.68120 29498 ft 470 kts 138°
2026-05-09 01:04 41.39864 -85.64763 29223 ft 469 kts 138°
2026-05-09 01:04 41.37796 -85.61428 28952 ft 465 kts 138°
2026-05-09 01:05 41.35786 -85.58196 28686 ft 465 kts 137°
2026-05-09 01:05 41.33729 -85.54888 28417 ft 465 kts 137°
2026-05-09 01:05 41.29722 -85.48456 27894 ft 461 kts 137°
2026-05-09 01:06 41.27678 -85.45173 27630 ft 460 kts 137°
2026-05-09 01:06 41.25640 -85.41914 27333 ft 458 kts 137°
2026-05-09 01:06 41.23682 -85.38783 27083 ft 458 kts 137°
2026-05-09 01:06 41.21816 -85.35786 26851 ft 457 kts 137°
2026-05-09 01:07 41.19794 -85.32529 26593 ft 456 kts 137°
2026-05-09 01:07 41.17766 -85.29293 26334 ft 456 kts 137°
2026-05-09 01:07 41.15736 -85.26063 26083 ft 455 kts 137°
2026-05-09 01:07 41.13886 -85.23123 25856 ft 453 kts 137°
2026-05-09 01:08 41.11870 -85.19917 25609 ft 450 kts 137°
2026-05-09 01:08 41.09877 -85.16756 25362 ft 445 kts 137°
2026-05-09 01:08 41.07922 -85.13657 25121 ft 441 kts 137°
2026-05-09 01:08 41.05967 -85.10552 24879 ft 437 kts 137°
2026-05-09 01:09 41.04018 -85.07473 24638 ft 435 kts 137°
2026-05-09 01:09 41.02075 -85.04397 24374 ft 435 kts 137°
2026-05-09 01:09 41.00139 -85.01330 24139 ft 433 kts 137°
2026-05-09 01:09 40.98208 -84.98281 23906 ft 431 kts 137°
2026-05-09 01:10 40.96285 -84.95256 23674 ft 427 kts 137°
2026-05-09 01:10 40.94476 -84.92409 23452 ft 424 kts 137°
2026-05-09 01:10 40.92730 -84.89657 23194 ft 422 kts 137°
2026-05-09 01:10 40.90841 -84.86699 23005 ft 419 kts 137°
2026-05-09 01:11 40.88963 -84.83764 22922 ft 418 kts 137°
2026-05-09 01:11 40.87108 -84.80863 22893 ft 419 kts 137°
2026-05-09 01:11 40.85221 -84.77847 22872 ft 425 kts 131°
2026-05-09 01:11 40.83875 -84.74362 22874 ft 437 kts 115°
2026-05-09 01:12 40.82858 -84.70567 22879 ft 440 kts 112°
2026-05-09 01:12 40.81874 -84.66733 22876 ft 441 kts 113°
2026-05-09 01:12 40.80817 -84.62944 22873 ft 439 kts 116°
2026-05-09 01:12 40.79658 -84.59232 22871 ft 436 kts 117°
2026-05-09 01:13 40.78469 -84.55551 22726 ft 439 kts 117°
2026-05-09 01:13 40.77369 -84.52154 22339 ft 441 kts 117°
2026-05-09 01:13 40.76174 -84.48411 22001 ft 442 kts 116°
2026-05-09 01:13 40.75015 -84.44688 21688 ft 434 kts 116°
2026-05-09 01:14 40.73881 -84.41053 21376 ft 425 kts 116°
2026-05-09 01:14 40.72755 -84.37458 21061 ft 423 kts 116°
2026-05-09 01:14 40.71642 -84.33897 20758 ft 421 kts 116°
2026-05-09 01:14 40.70538 -84.30376 20458 ft 419 kts 116°
2026-05-09 01:15 40.69428 -84.26833 20158 ft 418 kts 115°
2026-05-09 01:15 40.68375 -84.23478 19880 ft 416 kts 115°
2026-05-09 01:15 40.67314 -84.20111 19598 ft 414 kts 115°
2026-05-09 01:15 40.66256 -84.16742 19322 ft 418 kts 115°
2026-05-09 01:16 40.65123 -84.13146 19043 ft 432 kts 115°
2026-05-09 01:16 40.63953 -84.09436 18774 ft 444 kts 115°
2026-05-09 01:16 40.62757 -84.05648 18499 ft 451 kts 115°
2026-05-09 01:17 40.60352 -83.98049 17872 ft 449 kts 114°
2026-05-09 01:17 40.59150 -83.94263 17537 ft 446 kts 115°
2026-05-09 01:17 40.57959 -83.90524 17188 ft 441 kts 115°
2026-05-09 01:17 40.56790 -83.86862 16854 ft 440 kts 115°
2026-05-09 01:18 40.55703 -83.83462 16562 ft 439 kts 115°
2026-05-09 01:18 40.54527 -83.79768 16230 ft 437 kts 115°
2026-05-09 01:18 40.53355 -83.76109 15921 ft 432 kts 115°
2026-05-09 01:18 40.52194 -83.72500 15667 ft 426 kts 115°
2026-05-09 01:19 40.51059 -83.68922 15416 ft 422 kts 115°
2026-05-09 01:19 40.49922 -83.65377 15168 ft 421 kts 115°
2026-05-09 01:19 40.48776 -83.61838 14921 ft 422 kts 115°
2026-05-09 01:19 40.47632 -83.58286 14671 ft 422 kts 115°
2026-05-09 01:20 40.46487 -83.54739 14437 ft 421 kts 115°
2026-05-09 01:20 40.45343 -83.51211 14212 ft 418 kts 115°
2026-05-09 01:20 40.44275 -83.48131 14103 ft 411 kts 120°
2026-05-09 01:20 40.42836 -83.44981 14049 ft 408 kts 127°
2026-05-09 01:21 40.41257 -83.42154 14030 ft 410 kts 130°
2026-05-09 01:21 40.39506 -83.39193 14011 ft 411 kts 131°
2026-05-09 01:21 40.37753 -83.36227 14016 ft 412 kts 130°
2026-05-09 01:21 40.36036 -83.33217 14014 ft 413 kts 129°
2026-05-09 01:22 40.34336 -83.30179 14015 ft 413 kts 129°
2026-05-09 01:22 40.32678 -83.27232 14020 ft 391 kts 129°
2026-05-09 01:22 40.30984 -83.24533 13746 ft 377 kts 138°
2026-05-09 01:22 40.29082 -83.22220 13258 ft 371 kts 144°
2026-05-09 01:23 40.27107 -83.20157 12748 ft 366 kts 147°
2026-05-09 01:23 40.25088 -83.18164 12251 ft 363 kts 148°
2026-05-09 01:23 40.23083 -83.16178 11759 ft 359 kts 148°
2026-05-09 01:23 40.21210 -83.14278 11295 ft 353 kts 147°
2026-05-09 01:24 40.19509 -83.12170 10826 ft 354 kts 132°
2026-05-09 01:24 40.18215 -83.09633 10376 ft 343 kts 126°
2026-05-09 01:24 40.17016 -83.07004 9897 ft 330 kts 126°
2026-05-09 01:24 40.15842 -83.04494 9395 ft 318 kts 127°
2026-05-09 01:25 40.14742 -83.02214 8929 ft 308 kts 129°
2026-05-09 01:25 40.13571 -82.99924 8468 ft 298 kts 130°
2026-05-09 01:25 40.12407 -82.97736 8062 ft 288 kts 131°
2026-05-09 01:25 40.11297 -82.95654 7691 ft 278 kts 131°
2026-05-09 01:26 40.10182 -82.93643 7320 ft 269 kts 133°
2026-05-09 01:26 40.09118 -82.91672 6945 ft 266 kts 123°
2026-05-09 01:26 40.08673 -82.89337 6626 ft 266 kts 100°
2026-05-09 01:26 40.08583 -82.86936 6311 ft 264 kts 95°
2026-05-09 01:27 40.08605 -82.84545 5960 ft 263 kts 88°
2026-05-09 01:27 40.08723 -82.82189 5610 ft 258 kts 92°
2026-05-09 01:27 40.08773 -82.79857 5267 ft 256 kts 92°
2026-05-09 01:27 40.08806 -82.77747 4947 ft 253 kts 92°
2026-05-09 01:28 40.08820 -82.75458 4608 ft 251 kts 92°
2026-05-09 01:28 40.08822 -82.73223 4287 ft 247 kts 93°
2026-05-09 01:28 40.08816 -82.71032 4183 ft 233 kts 93°
2026-05-09 01:28 40.08563 -82.69065 4145 ft 209 kts 124°
2026-05-09 01:29 40.07581 -82.67889 3927 ft 181 kts 169°
2026-05-09 01:29 40.06384 -82.67731 3777 ft 177 kts 182°
2026-05-09 01:29 40.05127 -82.67612 3634 ft 183 kts 182°
2026-05-09 01:29 40.03860 -82.67491 3478 ft 183 kts 182°
2026-05-09 01:30 40.02584 -82.67381 3326 ft 184 kts 182°
2026-05-09 01:30 40.01343 -82.67547 3129 ft 177 kts 211°
2026-05-09 01:30 40.00595 -82.68698 3064 ft 168 kts 241°
2026-05-09 01:30 40.00023 -82.70038 3035 ft 167 kts 242°
2026-05-09 01:31 39.99532 -82.71362 3003 ft 158 kts 254°
2026-05-09 01:31 39.99488 -82.72752 2987 ft 155 kts 267°
2026-05-09 01:31 39.99470 -82.74196 2912 ft 167 kts 266°
2026-05-09 01:31 39.99477 -82.75753 2665 ft 174 kts 271°
2026-05-09 01:32 39.99550 -82.77333 2429 ft 173 kts 272°
2026-05-09 01:32 39.99637 -82.78879 2201 ft 166 kts 273°
2026-05-09 01:32 39.99713 -82.80135 2039 ft 143 kts 274°
2026-05-09 01:32 39.99814 -82.81403 1791 ft 147 kts 274°
2026-05-09 01:33 39.99875 -82.82802 1612 ft 159 kts 273°
2026-05-09 01:33 39.99953 -82.84198 1404 ft 154 kts 274°
2026-05-09 01:33 40.00027 -82.85561 1195 ft 147 kts 275°
2026-05-09 01:33 40.00098 -82.86867 994 ft 146 kts 274°
2026-05-09 01:34 40.00176 -82.88175 836 ft 139 kts 274°
2026-05-09 01:34 40.00234 -82.89254 813 ft 90 kts 275°
2026-05-09 01:34 40.00258 -82.89675 815 ft 19 kts 272°
2026-05-09 01:34 40.00205 -82.89758 818 ft 9 kts 183°
2026-05-09 01:35 40.00201 -82.89759 818 ft 0 kts 183°
2026-05-09 01:35 40.00184 -82.89760 817 ft 0 kts 183°
2026-05-09 01:35 40.00175 -82.89754 816 ft 0 kts 129°
2026-05-09 01:35 40.00164 -82.89663 817 ft 16 kts 95°
2026-05-09 01:36 40.00155 -82.89495 817 ft 21 kts 94°
2026-05-09 01:36 40.00143 -82.89286 815 ft 25 kts 95°
2026-05-09 01:36 40.00130 -82.89061 819 ft 22 kts 94°
2026-05-09 01:36 40.00121 -82.88912 820 ft 17 kts 94°
2026-05-09 01:37 40.00112 -82.88743 822 ft 13 kts 94°
2026-05-09 01:37 40.00089 -82.88657 823 ft 11 kts 140°
2026-05-09 01:37 40.00029 -82.88600 819 ft 14 kts 108°
2026-05-09 01:37 40.00020 -82.88481 819 ft 6 kts 119°
2026-05-09 01:38 39.99984 -82.88465 819 ft 8 kts 175°
2026-05-09 01:38 39.99960 -82.88468 819 ft 2 kts 209°